Regional Weather Roundup
Issued by NWS

Home | Current Version | Previous Version | Graphics & Text | Print | Product List | Glossary On
Versions: 1 2 3 4 5 6 7 8 9 10 11 12 13 14 15 16 17 18 19 20 21 22 23 24 25 26 27 28 29 30 31 32 33 34 35 36 37 38 39 40 41 42 43 44 45 46 47 48 49 50
893
ASUS44 KLIX 302310
RWRLA
LOUISIANA WEATHER ROUNDUP
NATIONAL WEATHER SERVICE NEW ORLEANS LA
600 PM CDT TUE SEP 30 2014

NOTE: "FAIR" INDICATES FEW OR NO CLOUDS BELOW 12,000 FEET WITH NO
      SIGNIFICANT WEATHER AND/OR OBSTRUCTIONS TO VISIBILITY.
      SKY/WX - SKY CONDITION AND SIGNIFICANT WEATHER.
      TMP - AIR TEMPERATURE.    DP   - DEWPOINT TEMPERATURE.
      RH  - RELATIVE HUMIDITY.  PRES - PRESSURE.
      HX  - HEAT INDEX.         WCI  - WIND CHILL INDEX.

*  THESE STATIONS ARE NOT NWS OR FAA STATIONS AND ARE NOT UNDER
   NWS QUALITY CONTROL.

LAZ040-048-061>063-065-066-069-010000-
SOUTHEAST LOUISIANA

CITY           SKY/WX    TMP DP  RH WIND       PRES   REMARKS
N.O. AUDUBON     N/A     85  73  68 MISG        N/A
N.O. INTL ARPT PTCLDY    85  70  60 SE12      29.83S
N.O. LAKEFRONT CLEAR     83  70  64 E10       29.84S
N.O. DOWNTOWN* FAIR      84  70  61 S7        29.84S
SLIDELL        CLEAR     82  69  64 SE7       29.84R
BATON ROUGE    MOSUNNY   86  69  56 E7        29.82S
BOOTHVILLE     PTCLDY    80  74  81 E10       29.85F
BELLE CHASSE   PTCLDY    82  71  69 SE9       29.84S
BOGALUSA*      MOCLDY    86  68  53 E6        29.86R
GALLIANO*      NOT AVBL
NEW ROADS*     FAIR      87  69  55 E5        29.82S
GONZALES*      FAIR      87  71  59 NE3       29.82S
HAMMOND*       CLEAR     84  70  61 SE9       29.85R
HOUMA*         MOCLDY   N/A N/A N/A SE3       29.83S
PORT FOURCHON* PTCLDY    82  75  78 E7        29.87S

$$

LAZ041-044-053-054-010000-
SOUTHWEST LOUISIANA

CITY           SKY/WX    TMP DP  RH WIND       PRES   REMARKS
LAKE CHARLES   SUNNY     84  73  69 S6        29.81R
LAFAYETTE      SUNNY     85  71  63 CALM      29.81S
PATTERSON      PTSUNNY   84  73  70 S7          N/A
SALT POINT       N/A     85  75  72 VRB3      29.82S
NEW IBERIA     MOSUNNY   87  72  60 S8        29.82S
CHENAULT AIRPK NOT AVBL

$$

LAZ027-028-010000-
CENTRAL LOUISIANA

CITY           SKY/WX    TMP DP  RH WIND       PRES   REMARKS
FORT POLK      PTSUNNY   86  71  62 SE6       29.80F
ALEXANDRIA INT SUNNY     86  68  54 S6        29.79S
ALEXANDRIA     SUNNY     88  71  57 CALM      29.81F

$$

LAZ001-002-010000-
NORTHWEST LOUISIANA

CITY           SKY/WX    TMP DP  RH WIND       PRES   REMARKS
SHREVEPORT     PTSUNNY   88  65  46 SE9       29.78F
BARKSDALE AFB  MOSUNNY   87  65  48 SE7       29.79F
DTN SHREVEPORT MOSUNNY   86  65  49 SE6       29.79S

$$

LAZ014-016-010000-
NORTHEAST LOUISIANA

CITY           SKY/WX    TMP DP  RH WIND       PRES   REMARKS
MONROE         SUNNY     88  65  46 CALM      29.82F
TALLULAH       CLEAR     87  60  40 E3        29.83S

$$




USA.gov is the U.S. government's official web portal to all federal, state and local government web resources and services.